Location: Sungai Bunut
(2.6333°N, 113.7333°E)
Time: 10:28:16
(UTC+00:00)

A-11 Canister half - Pass Details

Date: 03 December 2023
Orbit: 1526 x 1682 km, 47.3° (Epoch: 04 March)

Event Time Altitude Azimuth Distance (km) Brightness Sun altitude
Exits shadow 21:29:39 13° 299° (WNW) 3,483 10.2 -11.5°
Maximum altitude 21:37:38 46° 231° (SW) 1,972 9.4 -9.6°
Drops below altitude 10° 21:46:24 10° 160° (SSE) 3,691 11.7 -7.6°
Sets 21:49:37 0° 154° (SSE) 4,674 12.4 -6.9°
